Afton Municipal Airport, WY

5:57 AM MST on November 19, 2019 (GMT -0700)
Afton Municipal

Weather History for KAFO - September, 2019

Change the Weather History Date:

Friday, September 13, 2019

  Actual Average Record
Temperature  
Mean Temperature 50 °F -  
Max Temperature 69 °F 68 °F 80 °F (2015)
Min Temperature 32 °F 32 °F 28 °F (2014)
Degree Days  
Heating Degree Days 14    
Moisture  
Dew Point 37 °F    
Average Humidity 69    
Maximum Humidity 100    
Minimum Humidity 28    
Precipitation  
Precipitation 0.00 in - - ()
Sea Level Pressure  
Sea Level Pressure 30.34 in    
Wind  
Wind Speed 2 mph ()    
Max Wind Speed 16 mph    
Max Gust Speed 23 mph    
Visibility 10.0 miles    
Events      
Averages and records for this station are not official NWS values.
T = Trace of Precipitation, MM = Missing Value Source: Averaged Metar Reports

Daily Weather History Graph

Daily Weather History Graph

Search for Another Location

Airport or City:

Astronomy

Sep. 13, 2019 Rise Set
Actual Time 7:01 AM MDT 7:37 PM MDT
Civil Twilight 6:32 AM MDT 8:05 PM MDT
Nautical Twilight 5:59 AM MDT 8:39 PM MDT
Astronomical Twilight 5:24 AM MDT 9:13 PM MDT
Moon 7:54 PM MDT (9/13) 6:19 AM MDT (9/13)
Length of Visible Light 13h 32m
Length of Day
12h 36m
Full, 100% of the Moon is Illuminated
Sep 13
Full
Sep 13
Full
Sep 21
Last Quarter
Sep 28
New
Oct 5
First Quarter

Hourly Weather History & Observations

Time (MDT) Temp. Windchill Dew Point Humidity Pressure Visibility Wind Dir Wind Speed Gust Speed Precip Events Conditions
12:15 AM 41.0 °F - 37.4 °F 87% 30.40 in 10.0 mi Calm Calm - N/A   Clear
12:35 AM 39.2 °F 37.0 °F 35.6 °F 87% 30.40 in 10.0 mi SSW 3.5 mph - N/A   Clear
12:55 AM 37.4 °F - 35.6 °F 93% 30.40 in 10.0 mi Calm Calm - N/A   Clear
1:15 AM 37.4 °F - 35.6 °F 93% 30.40 in 10.0 mi North - - N/A   Clear
1:35 AM 37.4 °F - 37.4 °F 100% 30.39 in 10.0 mi North - - N/A   Clear
1:55 AM 35.6 °F - 35.6 °F 100% 30.39 in 10.0 mi North - - N/A   Clear
2:15 AM 37.4 °F - 35.6 °F 93% 30.40 in 10.0 mi Calm Calm - N/A   Clear
2:35 AM 37.4 °F - 35.6 °F 93% 30.40 in 10.0 mi Calm Calm - N/A   Clear
2:55 AM 35.6 °F 31.7 °F 35.6 °F 100% 30.40 in 10.0 mi SSW 4.6 mph - N/A   Clear
3:15 AM 37.4 °F - 35.6 °F 93% 30.40 in 10.0 mi Calm Calm - N/A   Clear
3:35 AM 35.6 °F - 33.8 °F 93% 30.40 in 10.0 mi North - - N/A   Clear
3:55 AM 35.6 °F - 33.8 °F 93% 30.39 in 10.0 mi North - - N/A   Clear
4:15 AM 33.8 °F - 33.8 °F 100% 30.39 in 10.0 mi Calm Calm - N/A   Clear
4:35 AM 35.6 °F - 33.8 °F 93% 30.39 in 10.0 mi Calm Calm - N/A   Clear
4:55 AM 33.8 °F - 33.8 °F 100% 30.39 in 10.0 mi Calm Calm - N/A   Clear
5:15 AM 33.8 °F - 33.8 °F 100% 30.38 in 10.0 mi Calm Calm - N/A   Clear
5:35 AM 33.8 °F - 33.8 °F 100% 30.38 in 10.0 mi Calm Calm - N/A   Clear
5:55 AM 33.8 °F - 32.0 °F 93% 30.38 in 10.0 mi Calm Calm - N/A   Clear
6:15 AM 33.8 °F - 33.8 °F 100% 30.38 in 10.0 mi Calm Calm - N/A   Clear
6:55 AM 33.8 °F - 33.8 °F 100% 30.38 in 10.0 mi Calm Calm - N/A   Clear
7:15 AM 33.8 °F - 33.8 °F 100% 30.38 in 10.0 mi Calm Calm - N/A   Clear
7:35 AM 33.8 °F - 33.8 °F 100% 30.39 in 10.0 mi North - - N/A   Clear
7:55 AM 32.0 °F - 32.0 °F 100% 30.39 in 10.0 mi North - - N/A   Clear
8:15 AM 35.6 °F 32.8 °F 35.6 °F 100% 30.39 in 10.0 mi South 3.5 mph - N/A   Clear
8:35 AM 37.4 °F - 35.6 °F 93% 30.39 in 10.0 mi Calm Calm - N/A   Clear
8:55 AM 41.0 °F - 35.6 °F 81% 30.39 in 10.0 mi Calm Calm - N/A   Clear
9:10 AM 41.0 °F - 37.4 °F 87% 30.39 in 10.0 mi Calm Calm - N/A   Clear
9:35 AM 44.6 °F - 37.4 °F 76% 30.39 in 10.0 mi Calm Calm - N/A   Clear
9:55 AM 46.4 °F - 37.4 °F 71% 30.39 in 10.0 mi Calm Calm - N/A   Clear
10:15 AM 48.2 °F - 39.2 °F 71% 30.38 in 10.0 mi Calm Calm - N/A   Clear
10:35 AM 50.0 °F - 41.0 °F 71% 30.38 in 10.0 mi Calm Calm - N/A   Clear
10:55 AM 51.8 °F - 41.0 °F 67% 30.37 in 10.0 mi Calm Calm - N/A   Clear
11:15 AM 53.6 °F - 41.0 °F 62% 30.36 in 10.0 mi Calm Calm - N/A   Clear
11:35 AM 55.4 °F - 42.8 °F 63% 30.36 in 10.0 mi Calm Calm - N/A   Clear
11:55 AM 59.0 °F - 41.0 °F 51% 30.35 in 10.0 mi Calm Calm - N/A   Clear
12:15 PM 62.6 °F - 39.2 °F 42% 30.34 in 10.0 mi Calm Calm - N/A   Clear
12:35 PM 62.6 °F - 35.6 °F 37% 30.34 in 10.0 mi Calm Calm - N/A   Clear
12:55 PM 64.4 °F - 37.4 °F 37% 30.33 in 10.0 mi Calm Calm - N/A   Clear
1:15 PM 64.4 °F - 35.6 °F 34% 30.33 in 10.0 mi ENE 3.5 mph - N/A   Clear
1:35 PM 66.2 °F - 37.4 °F 35% 30.33 in 10.0 mi ESE 4.6 mph - N/A   Clear
1:55 PM 64.4 °F - 35.6 °F 34% 30.31 in 10.0 mi Calm Calm - N/A   Clear
2:15 PM 68.0 °F - 37.4 °F 33% 30.31 in 10.0 mi West 5.8 mph - N/A   Clear
2:55 PM 68.0 °F - 37.4 °F 33% 30.29 in 10.0 mi NNW 6.9 mph - N/A   Clear
3:15 PM 68.0 °F - 37.4 °F 33% 30.29 in 10.0 mi Calm Calm - N/A   Clear
3:35 PM 69.8 °F - 35.6 °F 28% 30.28 in 10.0 mi WNW 9.2 mph - N/A   Clear
3:55 PM 69.8 °F - 35.6 °F 28% 30.27 in 10.0 mi SW 16.1 mph 23.0 mph N/A   Clear
4:15 PM 68.0 °F - 35.6 °F 30% 30.28 in 10.0 mi SW 5.8 mph - N/A   Clear
4:35 PM 68.0 °F - 33.8 °F 28% 30.27 in 10.0 mi Calm Calm - N/A   Clear
4:55 PM 68.0 °F - 35.6 °F 30% 30.27 in 10.0 mi NW 3.5 mph - N/A   Clear
5:15 PM 69.8 °F - 35.6 °F 28% 30.27 in 10.0 mi WNW 3.5 mph - N/A   Clear
5:35 PM 68.0 °F - 33.8 °F 28% 30.27 in 10.0 mi West 6.9 mph - N/A   Clear
5:55 PM 68.0 °F - 37.4 °F 33% 30.27 in 10.0 mi WNW 5.8 mph - N/A   Clear
6:15 PM 66.2 °F - 39.2 °F 37% 30.27 in 10.0 mi WNW 6.9 mph - N/A   Clear
6:35 PM 64.4 °F - 37.4 °F 37% 30.27 in 10.0 mi West 5.8 mph - N/A   Clear
6:55 PM 62.6 °F - 42.8 °F 48% 30.27 in 10.0 mi WSW 3.5 mph - N/A   Clear
7:15 PM 59.0 °F - 41.0 °F 51% 30.27 in 10.0 mi WSW 4.6 mph - N/A   Clear
7:35 PM 53.6 °F - 42.8 °F 67% 30.27 in 10.0 mi SW 3.5 mph - N/A   Clear
7:55 PM 55.4 °F - 39.2 °F 54% 30.27 in 10.0 mi Calm Calm - N/A   Clear
8:15 PM 55.4 °F - 39.2 °F 54% 30.28 in 10.0 mi Calm Calm - N/A   Clear
8:35 PM 51.8 °F - 41.0 °F 67% 30.28 in 10.0 mi Calm Calm - N/A   Clear
8:55 PM 50.0 °F - 41.0 °F 71% 30.28 in 10.0 mi Calm Calm - N/A   Clear
9:15 PM 50.0 °F - 39.2 °F 66% 30.29 in 10.0 mi SSE 4.6 mph - N/A   Clear
9:35 PM 46.4 °F 43.5 °F 41.0 °F 81% 30.29 in 10.0 mi South 5.8 mph - N/A   Clear
9:55 PM 46.4 °F 42.9 °F 39.2 °F 76% 30.29 in 10.0 mi South 6.9 mph - N/A   Clear
10:15 PM 46.4 °F 44.3 °F 39.2 °F 76% 30.29 in 10.0 mi SW 4.6 mph - N/A   Clear
10:35 PM 46.4 °F 44.3 °F 39.2 °F 76% 30.29 in 10.0 mi SSW 4.6 mph - N/A   Clear
10:55 PM 44.6 °F 43.1 °F 37.4 °F 76% 30.29 in 10.0 mi SSW 3.5 mph - N/A   Clear
11:15 PM 46.4 °F 44.3 °F 37.4 °F 71% 30.29 in 10.0 mi SSW 4.6 mph - N/A   Clear
11:35 PM 44.6 °F 42.2 °F 37.4 °F 76% 30.30 in 10.0 mi South 4.6 mph - N/A   Clear
11:55 PM 44.6 °F 41.4 °F 37.4 °F 76% 30.30 in 10.0 mi SSE 5.8 mph - N/A   Clear